GFSGBSN_prec_radar_105.txt.gz
Reflectivity
-20 -20 -20 -20 -20 -20 -20 -20 -20 -20 -20 -20 -20 -20 -20 -20 -20 -20 -20 -20 -20 -20 -20 -20 -20 -20 -20 -20 -20 -20 -20 -20 -20 -20 -20 -20 -20 -20 -20 -20 -20 -20 -20 -20 -20 -20 -20
-20 -20 -20 -10 -6 -12 -20 -20 -20 -20 -20 -20 -20 -20 -20 -20 -20 -20 -20 -20 -20 -20 -20 -20 -20 -20 -20 -20 -20 -20 -20 -20 -20 -20 -20 -20 -20 -20 -20 -20 -20 -20 -20 -20 -20 -20 -20
-20 -20 -15 -20 -10 1 3 -9 -20 -20 -20 -20 -20 -20 -20 -20 -20 -20 -20 -20 -20 -20 -20 -20 -20 -19 -20 -20 -20 -20 -20 -20 -20 -20 -20 -20 -20 -20 -20 -20 -20 -20 -20 -20 -20 -20 -20
-20 6 -2 -20 -20 -20 -20 -14 -19 -20 -20 -20 -20 -20 -20 -20 -20 -20 -20 -20 -20 -20 -20 -20 -20 -13 -20 -20 -20 -20 -20 -20 -20 -20 -20 -20 -20 -20 -20 -20 -20 -20 -20 -20 -20 -20 -20
-10 -18 -20 -20 -20 -20 -20 -20 -20 -20 -20 -20 -20 -20 -20 -20 -20 -20 -20 -20 -20 -20 -20 -20 -2 -10 -20 -20 -20 -20 -20 -20 -20 -20 -20 -20 -20 -20 -20 -20 -20 -20 -20 -20 -20 -20 -20
-7 -19 -20 -20 -20 -20 -20 -20 -20 -20 -20 -20 -20 -20 -20 -20 -20 -20 -20 -20 -20 -20 -20 -20 -20 -10 -20 -20 -20 -20 -20 -20 -20 -20 -20 -20 -20 -20 -20 -20 -20 -20 -20 -20 -20 -20 -20
-1 -10 -20 -20 -20 -20 -20 -20 -20 -20 -20 -20 -20 -20 -20 -20 -20 -20 -20 -20 -20 -20 -20 -20 -20 -20 -20 -20 -20 -20 -20 -20 -20 -20 -20 -20 -20 -20 -20 -20 -20 -20 -2 -20 -20 -20 -20
6 -20 -19 -20 -20 -20 -20 -20 -20 -20 -20 -20 -20 -20 -20 -20 -20 -20 -20 -20 -20 -20 -19 -20 -20 -20 -20 -20 -20 -20 -20 -20 -20 -20 -20 -20 -20 -20 -20 -20 -20 -2 8 -20 -20 -17 -20
9 5 8 -2 -6 -20 -20 -20 -20 -20 -20 -20 -20 -20 -20 -20 -20 -20 -20 -20 -20 -20 -16 -20 -20 -20 -20 -20 -20 -20 -20 -20 -20 -20 -20 -20 -20 -20 -20 -18 -14 -2 -18 -20 -20 -14 -20
15 8 -0 -4 -20 -20 -20 -20 -20 -20 -20 -20 -20 -20 -20 -20 -20 -20 -20 -20 -20 -20 -15 -20 -20 -20 -20 -20 -20 -20 -20 -20 -20 -20 -20 -20 -20 -20 -20 -20 -20 -12 -20 -17 -5 -20 -20
10 2 1 -20 -19 -20 -20 -20 -20 -20 -20 -20 -20 -20 -20 -20 -20 -20 -20 -20 -20 11 -16 -20 -13 -14 -20 -19 -20 -12 -19 -20 -20 -20 -0 -14 -20 -20 -20 -20 -18 -20 14 11 -12 -20 -20
6 1 -11 -20 -20 -20 -20 -20 -20 -20 -20 -20 -20 -20 -20 -20 -20 -20 -20 -20 -13 14 -17 -20 -20 13 9 -15 -18 -12 -14 -16 -20 2 1 -3 -17 -20 -20 -20 8 -6 12 -0 5 -15 -17
-4 -1 4 -20 -20 -20 -20 -20 -20 -20 -20 -20 -20 -20 -20 -20 -20 -20 -20 -20 3 11 -20 -11 -14 -17 -20 2 -18 4 15 13 -20 -14 31 -9 7 -8 -20 -15 -14 8 7 14 14 7 -20
-1 -14 -20 -16 -20 -20 -20 -20 -20 -20 -20 -20 -20 -20 -20 -20 -20 -20 -20 5 2 -20 -20 -18 -20 -20 17 -8 -2 36 7 -20 -20 -20 -5 18 19 10 -2 -5 -18 1 13 9 6 -19 -20
-1 -20 -20 2 -20 -20 -20 -20 -20 -20 -20 -20 -20 -20 -20 -20 -20 -20 8 2 -10 -20 -20 -20 -20 -10 5 -18 24 39 22 -20 -20 -20 36 16 27 9 11 8 19 26 13 8 23 1 17
10 -20 -20 -17 -20 -20 -20 -20 -20 -20 -20 -20 -20 -20 -20 -20 -20 -15 11 -20 -20 -16 -18 -20 -1 1 8 3 17 6 -13 -20 -20 -12 26 21 -5 11 15 -17 9 21 6 8 -9 -0 -20
-9 -20 -20 -15 -20 -20 -20 -20 -20 -20 -20 -20 -20 -20 -20 -20 -20 8 9 -13 -20 -20 -14 -10 3 9 8 17 15 0 -18 -20 -20 6 -3 11 -13 20 -11 -15 1 11 19 -10 1 -17 22
-17 -20 -20 -15 -20 -20 -20 -20 -20 -20 -20 -20 -20 -12 -20 -20 15 -8 2 -20 -20 -20 -20 -17 6 7 19 22 14 13 28 -19 -15 -16 -20 11 21 18 10 3 11 -20 -15 -20 3 -16 -20
-16 -20 -18 -20 -20 -20 -20 -20 -20 -20 -20 -20 -20 -20 -20 -20 4 3 -16 -20 -20 -20 -12 -14 25 33 21 26 29 34 25 -20 -20 8 6 -20 -4 19 3 -9 -10 24 3 -8 -10 4 -18
-19 -20 2 -10 -20 -20 -20 -20 -20 -20 -20 -20 -11 0 -16 -20 -20 1 -14 -4 -20 -20 -1 -11 4 28 13 29 36 27 22 1 1 -16 8 -18 15 22 13 4 -12 13 -2 -20 -7 3 7
-5 -20 -20 11 -20 -20 -20 -20 -20 -20 -20 -20 -3 -17 -20 2 -1 -20 -20 -20 -20 -20 -20 -18 -5 7 22 23 18 22 25 -1 -20 -20 -20 14 25 12 21 20 -19 18 -13 22 21 -20 -20
-12 -20 6 6 -20 -20 -20 -20 -20 -15 -20 -20 -20 -12 -20 -20 -20 -20 -20 -20 -20 -20 -10 -20 -16 -6 11 13 17 7 17 27 29 -7 -20 -20 -17 -20 -10 -14 -16 -20 -20 -20 -20 -20 -20
-19 -20 11 -20 -20 -20 -20 -20 -20 -20 -20 -3 -20 -20 -20 -19 -20 -20 -20 -20 -20 -20 -20 -20 -9 -20 3 -14 -1 3 -12 -4 -9 7 29 -3 -19 -5 -1 -14 2 3 -20 -20 -20 -19 0
-3 6 -20 -20 -20 -20 -20 -20 -20 -20 -20 -11 -20 -20 -1 6 -20 -20 -20 -20 -20 -20 -20 -20 -20 -20 -20 2 -12 1 -14 -5 6 8 4 10 17 9 -11 -8 -12 -8 -20 -20 5 -20 -16
13 -1 -18 -20 -20 -20 -20 -20 -20 -20 -20 -16 -20 -19 -1 4 -20 -20 -20 -20 -20 -20 -20 -20 -20 -20 -20 -16 7 12 12 -13 -0 -5 -8 -12 -10 -20 -20 -20 -20 8 -0 -12 4 5 -20
-20 11 -6 7 -20 -20 -20 -20 -20 -20 -1 -20 4 -19 -18 -18 -11 -20 -20 -20 -20 -20 -20 -20 -20 -20 -20 -20 -20 5 2 3 3 -18 -20 -20 -20 -20 -20 -20 9 16 3 -20 -20 11 -1
8 -20 -20 11 -20 -20 -20 -20 -20 -20 -14 1 -20 -19 3 13 -8 -20 5 -9 -20 -20 -20 -20 -20 -20 -20 -1 19 7 9 -20 7 4 4 -13 -12 5 -12 3 3 -19 -20 -20 13 14 2
-10 -20 -3 14 -20 -20 -20 -20 -20 -20 -1 13 12 2 10 12 -7 -4 4 4 -7 1 -5 -20 -5 -11 -18 -4 -1 -1 14 1 18 -10 6 9 9 10 11 4 17 -19 -20 -17 7 3 5
5 3 -19 11 9 2 -20 -20 -20 -20 -7 12 15 -18 -20 15 -7 -20 -20 -20 -20 -19 6 -20 2 12 7 9 -0 0 22 8 -14 25 -3 15 2 12 -2 2 6 4 2 4 2 -1 1

GFSGBSN_prec_radar_108.txt.gz
Reflectivity
5 1 -20 -20 -20 -9 -6 -15 -17 -19 -17 -20 -20 -20 -20 -20 -20 -20 -20 -20 -20 -20 -20 -20 -20 -20 -20 -20 -20 -20 -20 -20 -20 -20 -20 -20 -20 -20 -20 -20 -20 -20 -20 -20 -20 -20 -20
4 3 -15 -18 -20 -20 -15 5 9 7 2 -1 -5 -20 -20 -20 -20 -20 -20 -20 -20 -20 -20 -20 -20 -20 -19 -20 -20 -20 -20 -20 -20 -20 -20 -20 -20 -20 -20 -20 -20 -20 -20 -20 -20 -20 -20
18 -20 5 -20 -20 -20 -20 -20 -20 -20 -19 -20 -1 -7 -13 -11 -17 -19 -20 -20 -20 -20 -20 -20 -20 -20 -20 -20 -20 -20 -20 -20 -20 -20 -20 -20 -20 -20 -20 -20 -20 -20 -20 -20 -20 -20 -20
18 20 11 -10 -18 -20 -20 -20 -20 -20 -20 -20 -20 -20 -20 -20 -20 -20 -20 -20 -20 -20 -20 -20 -20 -18 -20 -20 -20 -20 -20 -20 -20 -20 -20 -20 -20 -20 -20 -20 -20 -20 -20 -20 -20 -20 -20
16 31 22 17 7 -20 -20 -20 -20 -20 -20 -20 -20 -20 -20 -20 -20 -20 -20 -20 -20 -20 -20 -20 -18 -20 -20 -20 -20 -20 -20 -20 -20 -20 -20 -20 -20 -20 -20 -20 -20 -20 -20 -20 -20 -20 -20
18 31 27 23 16 12 1 -20 -20 -20 -20 -20 -20 -20 -20 -20 -20 -20 -20 -20 -20 -20 -20 -20 -20 -3 -20 -20 -20 -20 -20 -20 -20 -20 -20 -20 -20 -20 -20 -20 -20 -20 -20 -20 -20 -20 -20
20 25 29 20 14 12 12 3 -20 -20 -20 -20 -20 -20 -20 -20 -20 -20 -20 -20 -20 -20 -20 -20 -20 -20 -20 -20 -20 -20 -20 -20 -20 -20 -20 -20 -20 -20 -20 -20 -20 -20 -20 -20 -20 -20 -20
20 30 27 23 14 12 8 -13 -17 -20 -20 -20 -20 -20 -20 -20 -20 -20 -20 -20 -20 -20 -20 -20 -20 -20 -20 -20 -20 -20 -20 -20 -20 -20 -20 -20 -20 -20 -20 -20 -20 -20 -4 -19 -20 5 23
25 32 31 22 16 12 8 13 10 1 -20 -20 -20 -20 -20 -20 -20 -20 -20 -20 -20 -20 -20 -20 -20 -20 -20 -20 -20 -20 -20 -20 -20 -20 -20 -20 -20 -20 -20 -20 -20 -20 -20 -15 -20 6 6
21 17 22 21 14 14 14 15 9 -11 -20 -20 -20 -20 -20 -20 -20 -20 -20 -20 -20 -20 -20 -20 -12 10 4 30 -17 -4 -20 7 -17 -20 -20 -20 -20 -20 -20 -20 -20 -20 -20 -20 -12 16 6
12 17 23 17 21 17 16 12 -4 -20 -20 -20 -20 -20 -20 -20 -20 -20 -20 -20 -20 -11 -18 -20 -20 -1 1 -19 6 21 23 6 -2 -20 -20 -20 -20 13 -20 -20 -20 -20 4 14 -7 8 -20
10 20 20 23 18 17 10 1 -20 -20 -20 -20 -20 -20 -20 -20 -20 -20 -20 -20 -20 1 -1 -20 -20 -20 -20 -20 -20 -1 -20 24 15 -20 -20 -20 -8 20 -20 2 -20 -18 15 5 -20 -20 4
12 14 25 17 18 11 7 -3 -20 -20 -20 -20 -20 -20 -20 -20 -20 -20 -20 -20 10 -4 -20 -20 -20 -20 -20 -19 3 -12 3 -20 33 -20 -20 -20 8 5 -20 -12 -20 -1 -16 -9 2 16 -8
6 19 15 19 9 8 -4 -20 -20 -20 -20 -20 -20 -20 -20 -20 -20 -20 -20 3 15 -20 -20 -20 -20 -20 -16 19 22 -20 -20 -18 -18 -14 -20 -20 25 22 -20 -20 -20 -20 -20 -7 -0 -20 -20
19 15 17 11 1 -14 -20 -20 -20 -20 -20 -20 -20 -20 -20 -20 -20 -20 -7 2 -20 -20 -20 -20 -20 -20 -20 -18 10 -7 -20 -4 -11 -20 8 27 23 24 1 -20 -20 -20 0 -3 6 8 12
10 12 6 12 -8 -12 -12 -20 -20 -20 -20 -20 -20 -20 -20 -20 -20 -20 12 -6 -20 -20 -20 -20 -18 -17 1 -14 11 15 -19 -20 -20 -20 -20 23 27 24 8 -5 -7 -20 11 20 18 21 21
17 7 7 2 -3 -16 -20 -20 -20 -20 -20 -20 -20 -20 -20 -20 -20 -8 -4 -20 -20 -20 -20 -20 -20 -2 -2 22 12 10 9 -2 -20 -20 -1 22 28 12 3 17 -9 6 22 8 7 15 24
14 11 5 -12 -20 -20 -20 -20 -20 -20 -20 -20 -20 -10 -20 -20 8 9 -19 -20 -20 -20 -20 -20 -20 5 13 26 7 18 18 9 -20 3 17 23 26 15 -13 -2 11 31 32 23 16 9 14
20 14 4 -9 -20 -20 -20 -20 -20 -20 -20 -20 -20 -20 -20 -20 9 -0 -20 -20 -20 -20 -20 -20 -18 -7 -4 21 15 23 17 10 -16 6 27 4 18 -0 20 -18 -4 -1 -0 0 28 23 15
19 8 -10 5 3 -20 -20 -20 -20 -20 -20 -20 -20 -9 -20 -20 -20 -15 -18 -8 -18 -20 -20 -20 -14 -5 -18 -12 16 26 18 -4 -20 -20 -20 -20 -4 -7 27 29 11 14 25 15 3 19 -4
10 -11 -8 -15 9 -20 -20 -20 -20 -20 -20 -20 -12 -14 -18 3 1 -20 -20 3 -20 -20 -20 -20 -18 -20 -5 -0 -13 7 14 -20 -20 -19 23 -12 2 27 34 3 -3 24 21 3 14 15 12
8 -20 -20 -20 4 -20 -20 -20 -20 -20 -20 -20 -20 1 -20 -20 -20 -20 5 -20 -20 -20 -20 -20 -20 -20 1 -16 -5 13 26 -8 -3 -20 -4 15 29 12 37 32 4 32 23 1 6 -6 18
12 3 -20 12 -20 -20 -20 -20 -20 -20 -20 -20 -20 -20 -20 -19 -20 -20 -2 -20 -20 -20 -20 -20 -20 -20 -20 -10 12 7 10 -2 -20 -20 -6 8 -20 -4 7 10 -5 -20 -18 -11 -20 -20 -20
8 9 -6 13 -20 -20 -20 -20 -20 -20 -20 -5 -20 -20 -20 -20 -20 -20 -20 -20 -20 -20 -20 -20 -20 -20 -20 -20 -20 4 -11 -19 -20 -20 -15 -3 6 -18 -16 -10 4 24 20 -20 -18 -10 -12
-20 -0 10 3 -20 -8 -20 -20 -20 -20 -20 -1 -20 -20 -7 -15 -20 -20 -20 -20 -20 -20 -20 -20 -20 -20 -20 -20 -20 4 7 -13 -20 -12 -20 -6 3 -9 -2 -15 9 -13 -20 -20 17 5 0
13 18 9 -17 -20 -20 -20 -20 -20 -20 -20 -20 -8 -20 -8 1 12 -20 -20 -19 -20 -20 -20 -20 -20 -20 -20 -20 -20 13 -6 -16 15 21 -2 -20 -19 -16 7 -1 13 -4 -20 -20 -20 1 -1
14 10 7 11 -4 -20 -20 -20 -20 -20 -20 5 17 -20 -10 -9 3 -20 -4 -20 -20 -20 -15 -20 -20 -20 -20 -20 -4 -12 20 -11 9 5 -12 -20 -3 12 7 19 -2 -20 -20 -20 -3 9 7
11 -2 -20 -20 -20 -20 -20 -20 -20 -20 -20 -15 16 -20 6 -17 -20 -20 -12 -20 -17 -1 -1 -20 -17 -20 -20 -19 -17 -11 -19 -20 12 5 9 -20 18 -18 -14 5 -8 -20 -20 -20 8 13 11
9 15 -20 -20 -20 -20 -20 -20 -20 -20 -20 -20 18 10 -18 -0 -17 -20 -20 -20 -20 -20 2 -20 -11 11 9 7 -6 -20 -13 -1 -19 31 -20 -6 -17 -4 -7 5 3 -16 5 2 -6 0 1

GFSGBSN_prec_radar_114.txt.gz
Reflectivity
-20 -6 -15 -5 -20 -9 -20 -20 -20 -20 -20 -20 -20 -20 -20 -20 -20 -20 -20 -20 -20 -20 -20 -20 -20 -20 -20 -20 -20 -20 -20 -20 -20 -20 -20 -20 -20 -20 -20 -20 -20 -20 -20 -20 -20 -20 -20
-20 -20 6 -20 -5 10 -20 -20 -17 -20 -20 -20 -20 -4 2 -20 -20 -20 -20 -20 -20 -20 -20 -20 -20 -20 -20 -17 -20 -20 -20 -20 -20 -20 -20 -20 -20 -20 -20 -20 -20 -20 -20 -20 -20 -20 -20
11 -12 -18 -20 3 -5 11 -4 -20 -20 -20 -20 -20 -20 -20 -20 -20 -20 -20 -20 -20 -20 -20 -20 -20 -19 -20 -20 -20 -20 -20 -20 -20 -20 -20 -20 -20 -20 -20 -20 -20 -20 -20 -20 -20 -20 -20
19 4 6 5 -19 2 -16 -4 -20 -20 -20 -20 -20 -20 -20 -20 -20 -20 -20 -20 -20 -20 -20 -20 -20 -20 -20 -20 -20 -20 -20 -20 -20 -20 -20 -20 -20 -20 -20 -20 -20 -20 -20 -20 -20 -20 -20
6 19 24 18 21 13 25 -0 16 -20 -13 3 8 -20 -20 -20 -20 -20 -6 -5 -20 -20 -20 -20 -20 -20 -20 -20 -20 -20 -20 -20 -20 -20 -20 -20 -20 -20 -20 -20 -20 -20 -20 -20 -20 -20 -20
16 22 17 -5 17 21 -0 22 3 1 5 -12 -18 -14 -19 -20 -20 -20 -20 0 -20 -20 -20 -20 -20 -20 -20 -20 -20 -20 -20 -20 -20 -20 -20 -20 -20 -20 -20 -20 -20 -20 -20 -20 -20 -20 -20
20 22 17 5 33 20 17 27 10 2 -4 -18 -12 2 -20 -20 -20 -20 -20 -2 -7 -20 -20 -20 -20 -20 -20 -20 -20 -20 -20 -20 -20 -20 -20 -20 -20 -20 -20 -20 -20 -20 -20 -20 -20 -20 -20
23 29 22 8 30 16 24 31 13 2 -14 -16 -10 -20 -20 -20 -20 -20 -20 -9 0 -19 -20 -20 -20 -20 -20 -20 -20 -20 -20 -20 -20 -20 -20 -20 -20 -20 -20 -20 -4 -20 -20 -20 -20 -20 -20
19 26 26 33 15 12 25 12 12 6 20 18 -20 -20 -20 -20 -20 -20 -0 -10 -13 -20 -20 -20 -20 -20 -20 -20 -20 -20 -20 -20 -20 -20 -20 -20 -20 -20 -20 -20 -20 -20 -20 -20 -20 -20 -20
23 27 26 31 26 22 31 26 6 17 1 -0 -20 -20 -20 -20 -20 -14 -20 -20 -20 -20 -20 -20 -20 -20 -20 -20 -20 -20 -20 -20 -20 -20 -20 -14 -20 -20 -19 -20 -16 12 -20 -20 -20 -20 -20
34 20 15 20 25 17 16 12 16 4 12 -13 -20 -20 -20 -20 -19 -15 -20 -20 -20 -20 -20 -20 -20 -20 -20 -20 -20 -20 -20 -20 -20 -20 -20 -20 -20 -5 10 -20 -14 10 -20 -20 -20 -20 -14
27 35 15 27 35 29 30 23 18 26 17 4 -6 -20 -20 -20 -14 -20 -20 -20 -20 -20 -20 -20 -20 -20 -20 -20 -20 -20 -20 -20 -20 -20 -20 -20 -20 -20 -20 -20 -20 -20 -20 -20 -19 -5 8
23 26 10 23 33 32 26 20 25 25 13 11 -17 -20 -20 -11 -20 -20 -20 -20 -20 -20 -20 -20 -20 -20 -20 -20 -20 -20 -20 -20 -20 -20 -20 -20 -20 -20 -20 -20 -20 -20 5 12 10 23 -14
41 24 29 36 33 26 23 20 22 8 6 -17 -20 -20 -2 -12 -20 -20 -20 -20 -20 -20 -20 -20 -20 -20 -20 -20 -20 -20 -20 -20 -20 -20 -20 -20 -20 -20 -20 -20 5 -20 -20 -18 -17 -16 -20
33 34 31 31 22 23 23 21 19 10 -2 -17 -20 -16 -9 -20 -20 -20 -20 -20 -20 -20 -20 -20 -20 -20 -20 -20 -2 -8 -20 -20 -0 -9 -20 -20 -20 -20 -17 -20 -12 -20 -20 -20 -1 30 -15
32 33 30 25 24 24 24 16 13 2 -8 -20 -1 -9 -14 -20 -20 -20 -20 -20 -20 -20 -20 -20 -20 -20 -1 -14 -20 -20 -20 -3 3 -10 -20 -7 -20 -13 2 26 -0 -17 -20 4 -20 16 -5
31 26 21 18 22 22 14 8 -11 -17 -20 -11 -1 -6 -20 -20 -20 -20 -20 -20 -20 -20 -20 -20 -20 -14 -14 -13 -15 -20 -20 -12 -2 -19 -20 -3 11 19 4 11 16 19 -20 -7 -20 -9 4
9 20 17 16 22 15 17 3 -20 -20 -17 0 -0 -19 -20 -20 -20 -20 -20 -20 -20 -20 -20 -20 -20 -19 -19 -20 -20 -20 -7 7 1 -6 7 8 27 17 29 -18 24 17 -20 -20 -20 -20 7
14 6 10 2 -14 -4 6 -19 -20 -19 6 2 1 -20 -20 -20 -20 -20 -20 -20 -20 -20 -20 -20 -20 -3 -20 -20 -20 -20 -20 -20 -20 -20 -1 -3 26 10 25 29 8 2 -14 -14 -10 33 26
9 -20 -4 -8 -5 -4 -11 -18 -20 -5 1 2 -18 -20 -20 -20 -20 -20 -20 -20 -20 -20 -20 -20 -20 -20 -20 -20 -10 -20 -20 -20 -20 -20 -20 -16 -16 -2 1 1 18 29 16 3 22 25 21
1 8 10 -2 5 -20 -20 -20 -9 9 4 -10 -20 -20 -20 -20 -20 -20 -20 -20 -20 -20 -20 -20 -20 -20 -20 -20 -20 -20 -20 -20 -20 -20 -20 -20 -15 15 3 29 21 32 18 37 16 35 21
9 8 -20 10 -8 -20 -20 -17 -1 7 -8 -20 -20 -20 -20 -20 -20 -20 -20 -20 -20 -20 -20 -20 -20 -20 -20 -20 -20 -20 -20 -20 -20 -20 -20 -20 17 34 31 36 28 22 30 36 31 31 10
-4 -2 -20 2 -20 -20 -14 7 2 -7 -20 -20 -20 -20 -20 -20 -20 -20 -20 -20 -20 -20 -20 -20 -20 -20 -20 -20 -20 -20 -20 -20 -20 -20 -20 -20 -13 19 15 27 29 10 21 20 18 23 13
11 -20 -20 -15 -20 -20 -10 12 1 -17 -20 -20 -20 -20 -20 -20 -20 -20 -20 -20 -20 -20 -20 -20 -20 -20 -20 -20 -20 -20 -20 -20 -20 -12 -20 -20 -20 5 21 -7 5 24 31 2 -11 11 -7
-14 5 -16 4 -20 -17 1 10 -3 -20 -20 -20 -20 -20 -20 -20 -20 -20 -20 -20 -20 -20 -20 -20 -20 -20 -20 -20 -20 -20 -20 -20 -20 -16 -20 -20 -20 -12 20 -6 2 7 -5 -7 1 7 18
3 2 -10 10 -16 -14 -18 11 -7 -20 -20 -20 -20 -20 -20 -20 -20 -20 -20 -20 -20 -20 -20 -20 -20 -20 -20 -20 -20 -20 2 -20 -20 -20 -20 -20 -11 -20 12 -3 -20 -20 -20 -20 -20 2 11
12 -4 13 12 -12 -20 -6 -0 -20 -20 -20 -20 -20 -20 -20 -20 -20 -20 -20 -20 -20 -20 -20 -20 -20 -20 -20 -20 -20 -20 -20 -18 -3 -20 -13 -20 -16 -10 -20 -18 -20 -19 -20 -6 -20 4 3
3 6 7 -14 -20 -0 -0 -17 -20 -20 -20 -20 -20 -20 -20 -20 -20 -20 -20 -20 -20 -20 -20 -20 -20 -20 -20 -20 -20 -20 -20 -1 -9 -7 -13 -15 -16 -20 -20 -20 -20 -20 -20 -7 -0 5 -1
0 10 -1 -14 -12 -19 -20 -20 -20 -20 -20 -20 -20 -20 -20 -20 -20 -20 -20 -20 -20 -20 -20 -20 -20 -20 -20 -20 -12 -20 -20 -20 -20 -20 -20 -20 -20 -20 -2 -13 -1 1 10 5 -19 -20 -20

GFSGBSN_prec_radar_117.txt.gz
Reflectivity
-14 -19 -20 -16 -20 -20 -20 -20 -20 -20 -20 -20 -20 -20 -20 -20 -20 -20 -20 -20 -20 -20 -20 -20 -20 -20 -20 -20 -20 -20 -20 -20 -20 -20 -20 -20 -20 -20 -20 -20 -20 -20 -20 -20 -20 -20 -20
9 -17 6 -7 3 -20 12 -20 -18 -20 -20 -20 -20 -20 -20 -20 -20 -20 -20 -20 -20 -20 -20 -20 -20 -20 -20 -20 -20 -20 -20 -20 -20 -20 -20 -20 -20 -20 -20 -20 -20 -20 -20 -20 -20 -20 -20
8 17 11 10 -19 -20 -20 -20 -20 -10 -1 -20 -20 -20 -20 -20 -20 -20 -20 -20 -20 -20 -20 -20 -20 -20 -20 -20 -20 -20 -20 -20 -20 -20 -20 -20 -20 -20 -20 -20 -20 -20 -20 -20 -20 -20 -20
16 10 6 1 -8 -6 -20 -12 -19 9 -18 -20 -20 -20 -20 -20 -20 -20 -20 -20 -20 -20 -20 -20 -20 -20 -20 -20 -20 -20 -20 -20 -20 -20 -20 -20 -20 -20 -20 -20 -20 -20 -20 -20 -20 -20 -20
18 6 8 22 -3 -8 -8 5 17 21 -7 4 -20 -20 -20 -20 -20 -20 -20 -20 -20 -20 -20 -20 -20 -20 -20 -20 -20 -20 -20 -20 -20 -20 -20 -20 -20 -20 -20 -20 -20 -20 -20 -20 -20 -20 -20
24 11 19 18 18 23 -6 16 13 26 9 -18 10 -19 -19 -20 -20 -20 -20 -20 -20 -20 -20 -20 -20 -16 -20 -20 -20 -20 -20 -20 -20 -20 -20 -20 -20 -20 -20 -20 -20 -20 -20 -20 -20 -20 -20
10 23 13 19 13 25 15 21 14 18 28 8 -14 -16 -20 -20 -20 -20 -20 -20 -20 -20 -20 -20 -20 -20 -20 -20 -20 -20 -20 -20 -20 -20 -20 -20 -20 -20 -20 -20 -20 -20 -11 -20 -20 -20 -20
21 21 17 18 20 18 28 27 11 18 33 14 27 -17 -20 -20 -20 -20 -20 -20 -20 -20 -20 -20 -20 -20 -20 -20 -20 -20 -20 -20 -20 -20 -20 -20 -20 -20 -20 -20 -20 -20 -20 -20 -20 -20 -20
21 19 27 22 18 20 17 24 14 17 8 23 1 4 -20 -20 -20 -20 -20 -20 -20 -20 -20 -20 -20 -20 -20 -20 -20 -20 -20 -20 -20 -20 -20 -20 -20 -20 -20 -20 -20 -20 -20 -20 -20 -20 -20
21 21 27 19 16 16 10 22 27 20 26 9 2 9 -19 -20 -20 -20 -20 -20 -20 -20 -20 -20 -20 -20 -20 -20 -20 -20 -20 -20 -20 -20 -20 -20 -20 -20 -20 -20 -20 -20 -20 -20 -20 18 -20
21 22 26 27 24 9 8 9 18 36 27 27 14 5 -20 -20 -20 -20 -20 -20 -20 -20 -20 -20 -20 -20 -20 -20 -20 -20 -20 -20 -20 -20 -20 -20 -20 -20 -20 -20 -20 -20 -20 -19 -3 13 -15
27 25 27 30 10 16 4 5 25 27 20 18 -9 -10 -15 -20 -20 -17 -20 -20 -20 -20 -20 -20 -20 -20 -20 -20 -20 -20 -20 -20 -20 -20 -20 -20 -20 -20 -20 -20 -20 -20 -14 4 -19 -1 -20
29 35 40 22 32 19 20 13 5 16 16 11 10 -15 -16 -0 -5 -3 -12 -20 -20 -20 -20 -20 -20 -20 -20 -20 -20 -20 -20 -20 -20 -20 -20 -20 -20 -20 -20 -20 -20 -20 -9 -9 -20 -20 -13
32 28 28 23 22 12 23 32 18 15 10 14 10 10 1 -8 -7 -15 -20 -20 -20 -20 -20 -20 -20 -20 -20 -20 -20 -20 -20 -20 -20 -4 -0 -20 -20 -20 -20 -20 -20 -20 -20 -8 5 5 19
31 38 33 34 31 23 29 20 2 15 11 -2 2 -4 -19 -13 -19 -20 -20 -20 -20 -20 -20 -20 -20 -20 -20 -20 -20 -20 -20 -20 14 21 14 -17 -18 -20 -20 -20 -20 -17 -20 -16 -20 11 16
38 36 39 37 40 32 26 18 12 15 13 8 13 8 -2 -17 -20 -20 -20 -20 -20 -20 -20 -20 -20 -20 -20 -20 -20 -20 -20 -18 4 7 -2 -20 4 4 -10 -20 -20 -10 -20 20 -12 -9 -8
44 37 36 42 33 25 28 21 18 16 13 12 13 -9 -15 -20 -20 -20 -20 -20 -20 -20 -20 -20 -20 -20 -20 -20 -20 -20 -20 -17 -14 -20 -20 9 3 2 10 -20 -20 -0 -20 7 5 10 17
35 36 34 34 26 13 18 22 11 13 9 3 -1 -7 -17 -20 -20 -20 -20 -20 -20 -20 -20 -20 -20 -20 -20 -20 -20 -20 -20 14 -18 -20 -20 8 11 8 -17 -19 4 18 -20 -19 -20 -20 14
35 26 24 18 10 12 11 7 10 16 16 7 3 -6 -15 -20 -20 -20 -20 -20 -20 -20 -20 -20 -20 -20 -20 -20 -20 -20 -20 -20 -20 -20 -20 -13 11 -17 -5 5 15 25 22 -15 -16 -17 -5
25 23 17 8 2 -1 10 2 13 16 -2 -13 -3 -20 -20 -20 -20 -20 -20 -20 -20 -20 -20 -20 -20 -20 -20 -20 -20 -20 -20 -20 -20 -20 -20 -5 29 25 12 25 21 15 -16 -16 -7 2 9
19 25 4 -0 -20 9 4 -17 -16 -20 -20 -10 -8 -20 -20 -20 -20 -20 -20 -20 -20 -20 -20 -20 -20 -20 -20 -20 -20 -20 -20 -20 -20 -20 -20 1 19 17 17 31 3 6 13 35 5 20 17
17 -6 3 2 -20 -11 -9 -20 -20 -20 -10 -4 -20 -20 -20 -20 -20 -20 -20 -20 -20 -20 -20 -20 -20 -20 -20 -20 -20 -20 -20 -20 -20 -20 -20 2 11 29 19 30 12 21 28 31 19 10 12
19 -19 -3 -20 -7 -5 -19 -20 -20 -20 -6 -4 -11 -20 -20 -20 -20 -20 -20 -20 -20 -20 -20 -20 -20 -20 -20 -20 -20 -20 -20 -20 -20 -20 -20 -20 -20 -20 18 11 4 8 28 25 18 -3 3
14 -20 -7 -20 11 -13 -20 -20 -20 -14 -3 -8 -20 -20 -20 -20 -20 -20 -20 -20 -20 -20 -20 -20 -20 -20 -20 -20 -20 -20 -20 -20 -20 -20 -20 -20 -20 -20 6 12 14 16 7 18 9 8 7
12 4 -20 -5 8 -20 -20 -20 -15 -8 -3 -14 -20 -20 -20 -20 -20 -20 -20 -20 -20 -20 -20 -20 -20 -20 -20 -20 -20 -20 -20 -20 -20 -20 -20 -20 -20 1 -20 6 5 -13 1 -8 1 4 7
16 -1 -16 9 -5 -20 -20 -20 -20 -18 -11 -20 -20 -20 -20 -20 -20 -20 -20 -20 -20 -20 -20 -20 -20 -20 -20 -20 -20 -20 -20 -20 -20 -20 -20 -20 -18 -16 -2 -20 -20 5 -20 -20 -20 -6 1
22 14 -0 6 -20 -20 -20 -20 -17 -20 -12 -19 -20 -20 -20 -20 -20 -20 -20 -20 -20 -20 -20 -20 -20 -20 -20 -20 -20 -20 -20 -17 -20 -20 -11 -20 -13 -4 -15 -20 -14 -19 7 7 -8 -15 8
22 19 6 -5 -20 -20 -20 -20 -20 -6 1 -20 -20 -20 -20 -20 -20 -20 -20 -20 -20 -20 -20 -20 -20 -20 -20 -20 -20 -20 -20 -20 -13 -19 -4 -17 -13 -11 -20 -20 -20 -20 -16 -13 -2 -13 -9
23 21 10 -5 -18 -20 -10 -15 -20 -3 -1 -20 -20 -20 -20 -20 -20 -20 -20 -20 -20 -20 -20 -20 -20 -20 -20 -20 -20 -20 -20 -20 -20 -20 -20 -20 -20 -18 -7 -14 -1 -1 0 -7 -20 -20 -20

GFSGBSN_prec_radar_120.txt.gz
Reflectivity
18 19 4 -2 -1 -20 -20 -20 -20 -20 -20 -20 -20 -20 -20 -20 -20 -20 -20 -20 -20 -20 -20 -20 -20 -20 -20 -20 -20 -20 -20 -20 -20 -20 -20 -20 -20 -20 -20 -20 -20 -20 -20 -20 -20 -20 -20
-20 7 19 8 11 12 -18 -19 2 -20 -20 -20 -20 -20 -20 -20 -20 -20 -20 -20 -20 -20 -20 -20 -20 -20 -20 -20 -20 -20 -20 -20 -20 -20 -20 -20 -20 -20 -20 -20 -20 -20 -20 -20 -20 -20 -20
7 10 -15 9 6 21 -1 8 -20 -20 -20 -20 -20 -20 -20 -20 -20 -20 -20 -20 -20 -20 -20 -20 -20 -20 -20 -20 -20 -20 -20 -20 -20 -20 -20 -20 -20 -20 -20 -20 -20 -20 -20 -20 -20 -20 -20
21 18 0 -9 12 21 22 13 6 -19 -20 -20 -20 -9 -20 -20 -20 -20 -20 -20 -20 -20 -20 -20 -20 -20 -20 -20 -20 -20 -20 -20 -20 -20 -20 -20 -20 -20 -20 -20 -20 -20 -20 -20 -20 -20 -20
-17 29 18 9 3 -4 15 26 -15 -7 -20 -20 -19 -20 -20 -20 -20 -20 -20 -20 -20 -20 -20 -20 -20 -20 -20 -20 -20 -20 -20 -20 -20 -20 -20 -20 -20 -20 -20 -20 -20 -20 -20 -20 -20 -20 -20
-20 -20 -3 15 15 -12 14 24 26 24 -12 -20 11 -19 -20 -20 -20 -20 -20 -20 -20 -20 -20 -20 -20 -20 -20 -20 -20 -20 -20 -20 -20 -20 -20 -20 -20 -20 -20 -20 -20 -20 -20 -20 -20 -20 -20
-20 -20 13 27 15 4 -18 21 24 17 32 7 8 -2 -11 -20 -20 -20 -20 -20 -20 -20 -20 -20 -20 -20 -20 -20 -20 -20 -20 -20 -20 -20 -20 -20 -20 -20 -20 -20 -20 -20 -20 -20 -20 -20 -20
1 -20 -13 17 22 12 22 13 22 10 24 28 13 15 17 12 -20 -20 -20 -20 -20 -20 -20 -20 -20 -20 -20 -20 -20 -20 -20 -20 -20 -20 -20 -20 -20 -20 -20 -20 -20 -20 -20 -20 -20 -20 -20
-12 -20 -20 9 25 20 24 23 -11 8 17 33 32 2 18 2 -20 -20 -20 -20 -20 -20 -20 -20 -20 -20 -20 -20 -20 -20 -20 -20 -20 -20 -20 -20 -20 -20 -20 -20 -20 -20 -20 -20 -20 -20 -20
-20 -20 -16 -18 19 26 20 24 -10 13 7 11 33 31 16 -4 -15 -20 -20 -20 -20 -20 -20 -20 -20 -20 -20 -20 -20 -20 -20 -20 -20 -20 -20 -20 -20 -20 -20 -20 -20 -20 -20 -20 -20 -20 -20
4 15 4 11 25 24 18 20 4 18 -14 27 27 19 24 -5 -13 -20 -20 -20 -20 -20 -20 -20 -20 -20 -20 -20 -20 -20 -20 -20 -20 -20 -20 -20 -20 -20 -20 -20 -20 -20 -20 -20 -20 -20 -19
-19 12 15 15 21 21 15 11 -14 12 -1 20 15 29 15 15 6 8 -20 -20 -20 -20 -20 -20 -20 -20 -20 -20 -20 -20 -20 -20 -20 -20 -20 -20 -20 -20 -20 -20 -20 -20 -20 -20 -20 -20 -19
13 -4 20 20 20 25 24 4 22 24 -10 9 7 16 16 28 16 -19 -20 -20 -20 -20 -20 -20 -20 -20 -20 -20 -20 -20 -20 -20 -20 -20 -20 -20 -20 -20 -20 -20 -20 -20 -20 -20 -20 -20 -20
11 24 24 23 21 24 20 15 21 26 18 0 6 20 19 20 14 -20 -20 -20 -20 -20 -20 -20 -20 -20 -20 -20 -20 -20 -20 -20 -20 -20 -20 -20 -20 -20 -20 -20 -20 -20 -20 -20 -6 9 12
22 28 23 24 20 22 19 25 35 24 33 13 5 -12 4 -13 -20 -20 -20 -20 -20 -20 -20 -20 -20 -20 -20 -20 -20 -20 -20 -20 -20 4 12 -9 -20 -20 -20 -19 -20 -20 -20 -20 -20 -20 -17
43 39 36 34 32 22 28 29 33 25 27 22 8 -2 -16 -20 -20 -20 -20 -20 -20 -20 -20 -20 -20 -20 -20 -20 -20 -20 -20 -20 -20 2 21 5 -1 -20 -18 -20 -20 -20 -20 -0 -20 7 3
38 39 41 39 36 39 36 37 34 32 28 14 4 -13 -15 -18 -10 -10 -19 -20 -18 -20 -20 -20 -20 -20 -20 -20 -20 -20 -20 -20 -20 -20 -20 4 24 -20 -20 -20 -20 -20 -20 -20 -10 16 14
31 37 39 41 36 38 40 40 33 26 20 1 -1 -8 -2 -7 -16 -1 -10 -20 -20 -20 -20 -20 -20 -20 -20 -20 -20 -20 -20 -20 -20 -20 -20 -20 17 10 -20 -4 -20 5 -20 -20 -19 -20 6
28 34 38 35 37 36 38 36 27 17 12 4 12 11 -10 -20 -17 1 5 -15 -20 -20 -20 -20 -20 -20 -20 -20 -20 -20 -20 -20 -20 -20 -12 13 25 -9 -20 -2 -10 -20 -20 -20 -20 -20 -7
26 30 36 35 32 32 31 25 13 9 -3 -4 -1 -3 -11 -20 -6 -1 -14 -20 -20 -20 -20 -20 -20 -20 -20 -20 -20 -20 -20 -20 -20 -20 -20 30 15 -10 12 11 10 -8 -16 -10 -17 -20 6
27 29 32 28 20 11 11 6 5 -17 -20 -20 -20 -11 -4 -20 -4 2 -19 -20 -20 -20 -20 -20 -20 -20 -20 -20 -20 -20 -20 -20 -20 -20 -20 1 7 20 -19 8 14 23 26 1 -8 -0 3
27 28 11 8 11 10 3 0 -15 -20 -20 -20 -20 -12 -7 -14 -9 -18 -20 -20 -20 -20 -20 -20 -20 -20 -20 -20 -20 -20 -20 -20 -20 -20 -20 16 1 6 -20 13 19 18 13 17 10 16 10
23 16 6 6 4 8 10 8 -19 -20 -20 -20 -20 -20 -20 -20 -20 -20 -20 -20 -20 -20 -20 -20 -20 -20 -20 -20 -20 -20 -20 -20 -20 -20 -20 -17 -15 -20 0 13 10 7 24 21 9 -8 -8
26 -10 -3 -7 -4 13 1 -12 -20 -20 -20 -20 -18 -20 -20 -20 -20 -20 -20 -20 -20 -20 -20 -20 -20 -20 -20 -20 -20 -20 -20 -20 -20 -20 -20 -18 16 -20 4 11 14 -5 18 18 16 -4 -7
23 -14 -1 -0 -8 9 -20 -20 -20 -20 -20 -20 -20 -20 -20 -20 -20 -20 -20 -20 -20 -20 -20 -20 -20 -20 -20 -20 -20 -20 -20 -20 -20 -20 -20 -20 9 10 -20 -16 -3 2 -15 -3 6 -2 -4
21 0 -7 3 3 4 -17 -20 -20 -20 -20 -9 -20 -20 -19 -20 -20 -20 -20 -20 -20 -20 -20 -20 -20 -20 -20 -20 -20 -20 -20 -20 -19 -20 -20 -20 24 27 -20 -20 -20 -20 -2 -16 -10 -7 -20
17 -4 12 -5 15 -8 -20 -20 -20 -20 -18 -20 -20 -20 -12 -20 -20 -20 -20 -20 -20 -20 -20 -20 -20 -20 -20 -20 -20 -20 -20 -20 -20 -20 -15 -20 7 12 -20 -20 -20 -20 -20 -20 -4 -13 -20
14 13 16 -6 2 -20 -20 -20 -20 -20 -20 -20 -20 -19 -20 -20 -20 -20 -20 -20 -20 -20 -20 -20 -20 -20 -20 -20 -20 -20 -20 -20 -20 -20 -14 -20 -7 -3 7 -20 -20 -20 -18 -20 -4 -20 -17
13 15 19 -16 -3 -20 -20 -20 -20 -20 -20 -20 -20 -20 -20 -20 -20 -20 -20 -20 -20 -20 -20 -20 -20 -20 -20 -20 -20 -20 -20 -20 -20 -20 -20 -20 -20 -16 -3 -19 -20 -16 -18 -19 -20 -20 -20

GFSGBSN_prec_radar_123.txt.gz
Reflectivity
12 16 -10 5 -20 15 -17 -20 -20 -20 -20 -20 -20 -20 -20 -20 -20 -20 -20 -20 -20 -20 -20 -20 -20 -20 -20 -20 -20 -20 -20 -20 -20 -20 -20 -20 -20 -20 -20 -20 -20 -20 -20 -20 -20 -20 -20
10 10 -20 19 -20 4 12 -16 11 7 -20 -20 -20 -20 -20 -20 -20 -20 -20 -20 -20 -20 -20 -20 -20 -20 -20 -20 -20 -20 -20 -20 -20 -20 -20 -20 -20 -20 -20 -20 -20 -20 -20 -20 -20 -20 -20
-9 -16 24 8 -0 6 -20 -20 12 13 -19 9 -20 -20 -20 -20 -20 -20 -20 -20 -20 -20 -20 -20 -20 -20 -20 -20 -20 -20 -20 -20 -20 -20 -20 -20 -20 -20 -20 -20 -20 -20 -20 -20 -20 -20 -20
-20 -20 -19 13 -12 21 -18 -20 -15 16 8 24 8 -7 -20 -20 -20 -20 -20 -20 -20 -20 -20 -20 -20 -20 -20 -20 -20 -20 -20 -20 -20 -20 -20 -20 -20 -20 -20 -20 -20 -20 -20 -20 -20 -20 -20
-20 -20 -20 -20 6 26 9 3 4 -1 -0 22 -14 6 -12 -20 -20 -20 -20 -20 -20 -20 -20 -20 -20 -20 -20 -20 -20 -20 -20 -20 -20 -20 -20 -20 -20 -20 -20 -20 -20 -20 -20 -20 -20 -20 -20
-20 -20 -20 -20 -20 -17 14 20 -20 -2 5 14 29 -10 16 -20 -20 -20 -20 -20 -20 -20 -20 -20 -20 -20 -20 -20 -20 -20 -20 -20 -20 -20 -20 -20 -20 -20 -20 -20 -20 -20 -20 -20 -20 -20 -20
6 -20 -20 -20 -20 -1 20 27 -17 -12 12 -11 15 14 22 -8 -16 -13 -20 -20 -20 -20 -20 -20 -20 -20 -20 -20 -20 -20 -20 -20 -20 -20 -20 -20 -20 -20 -20 -20 -20 -20 -20 -20 -20 -20 -20
-20 -20 -20 -20 -20 -3 5 11 10 16 10 4 16 3 23 14 -11 -5 -20 -20 -20 -20 -20 -20 -20 -20 -20 -20 -20 -20 -20 -20 -20 -20 -20 -20 -20 -20 -20 -20 -20 -20 -20 -20 -20 -20 -20
11 -20 -20 -20 -12 -3 -2 7 23 23 3 10 13 -0 24 28 29 6 21 -20 -20 -20 -20 -20 -20 -20 -20 -20 -20 -20 -20 -20 -20 -20 -20 -20 -20 -20 -20 -20 -20 -20 -20 -20 -20 -20 -20
-14 -20 -17 -10 -1 -20 -14 21 27 26 -18 -20 2 5 15 30 -2 23 -12 12 -20 -20 -20 -20 -20 -20 -20 -20 -20 -20 -20 -20 -20 -20 -20 -20 -20 -20 -20 -20 -20 -20 -20 -20 -20 -20 -20
-20 -20 -20 -20 -11 5 -7 12 24 10 8 -14 23 -12 17 28 13 24 17 10 -16 -20 -7 -20 -20 -20 -20 -20 -20 -20 -20 -20 -20 -20 -20 -20 -20 -20 -20 -20 -20 -20 -20 -20 -20 -20 -20
-20 -20 -20 -20 -8 -7 20 13 18 14 7 -6 16 -11 19 2 12 9 27 13 -3 -18 -20 -20 -20 -20 -20 -20 -20 -20 -20 -20 -20 -20 -20 -20 -20 -20 -20 -20 -20 -20 -20 -20 -20 -20 -15
-20 -20 -19 -20 13 10 19 18 20 23 -5 -1 -6 16 0 24 25 26 20 18 6 -6 -20 -20 -20 -20 -20 -20 -20 -20 -20 -20 -20 -20 -20 -20 -20 -20 -20 -20 -20 -20 -20 -20 -20 1 -20
-20 -20 -3 -19 9 2 27 28 21 21 -13 27 21 22 15 3 14 14 6 7 16 11 -20 -20 -20 -20 -20 -20 -20 -20 -20 -20 -20 -20 -20 -20 -20 -20 -20 -20 -20 -20 -20 -20 -20 -20 -20
-19 -16 -2 -5 10 20 27 23 14 -20 19 18 24 23 22 -14 -17 18 4 -2 9 -5 -20 -20 -20 -20 -20 -20 -20 -20 -20 -20 -20 1 -4 -3 -20 -20 -20 -20 -20 -17 -20 -20 -20 -20 -19
18 25 -3 24 26 19 22 17 22 21 26 17 35 28 18 -4 -3 8 14 -9 -4 -2 -20 -20 -20 -20 -20 -20 -20 -20 -20 -20 -20 -20 -20 -8 1 -20 -20 -20 -20 -20 -20 -7 -20 -13 15
31 28 41 30 24 25 23 28 25 19 18 31 33 31 19 18 3 -19 -14 -20 -20 -20 -20 -20 -20 -20 -20 -20 -20 -20 -20 -20 -20 -20 -20 -19 10 -20 -20 -20 -20 -20 -20 -19 10 -3 -6
-5 38 39 39 40 35 31 28 19 26 39 32 35 30 13 -6 -20 -20 -20 -20 -20 -20 -20 -20 -20 -20 -20 -20 -20 -20 -20 -20 -20 -20 -20 -20 10 8 -20 -20 -20 -20 -20 -20 9 -17 11
16 19 31 36 35 37 38 37 31 33 38 36 26 25 20 3 -17 -14 -20 -20 -12 -1 10 -3 -20 -20 -20 -20 -20 -20 -20 -20 -20 -20 -20 -2 1 -8 -20 -20 -20 -12 -3 20 6 -11 -18
17 27 30 31 38 35 37 38 38 38 32 26 19 22 15 -9 -10 -14 -20 -17 -11 -5 -12 -12 -1 -20 -20 -20 -20 -20 -20 -20 -20 -20 -20 22 -9 -7 -16 8 9 -2 -19 -15 3 -20 -19
18 27 25 30 35 37 36 39 27 23 21 18 17 -0 5 -12 -9 9 6 -19 -19 -6 4 1 -20 -20 -20 -20 -20 -20 -20 -20 -20 -20 -20 -14 4 28 -20 -8 -0 7 -10 -20 -20 16 10
16 23 30 33 34 33 30 26 20 24 18 17 11 10 -15 -20 8 -15 -20 -20 -20 -18 -19 -20 -20 -20 -20 -20 -20 -20 -20 -20 -20 -20 -20 -20 -10 22 -19 -5 2 17 -0 11 2 -20 -8
22 15 24 23 22 19 18 12 7 18 15 11 -20 -2 -19 -20 -20 -20 -20 -20 -8 2 -4 -20 -20 -20 -20 -20 -20 -20 -20 -20 -20 -20 -20 -20 5 -15 -18 7 7 13 15 4 -15 -17 -1
28 12 3 12 11 15 12 10 -0 -7 -1 -14 -17 -20 -20 -20 -20 -20 -20 -10 -8 -16 -20 -20 -20 -20 -20 -20 -20 -20 -20 -20 -20 -20 -20 -20 -11 -16 -11 15 13 -1 7 5 10 3 -13
27 3 2 -6 -0 2 5 0 -6 -20 -18 -20 -20 -20 -20 -20 -20 -20 -20 -20 -20 -20 -20 -20 -20 -20 -20 -20 -20 -20 -20 -20 -20 -20 -20 -20 -20 4 -13 -20 -3 2 -13 -8 3 -12 -20
27 6 2 -10 -11 10 8 -20 -20 -2 -19 -20 -20 -20 -20 -20 -20 -20 -20 -20 -20 -20 -20 -20 -20 -20 -20 -20 -20 -20 -20 -20 -20 -20 -20 -20 -20 22 -20 -20 -20 -13 -3 2 -19 -5 -20
21 6 7 -13 10 3 -11 -10 -7 -20 -20 -20 -19 -20 -20 -20 -20 -20 -20 -20 -20 -20 -20 -20 -20 -20 -20 -20 -20 -20 -20 -20 -20 -20 -20 -20 -20 11 -4 -20 -20 -20 -20 -20 -7 -20 -20
22 17 -11 -13 7 -20 -20 -20 -20 -20 -20 -13 -19 -20 -20 -20 -20 -20 -20 -20 -20 -20 -20 -20 -20 -20 -20 -20 -20 -20 -20 -20 -20 -20 -20 -20 -20 -20 4 -18 -5 -20 0 -20 -5 -12 -20
16 19 -11 -3 9 -19 -20 -20 -20 -20 -20 -20 -20 -20 -20 -20 -20 -20 -20 -20 -20 -20 -20 -20 -20 -20 -20 -20 -20 -20 -20 -20 -20 -20 -20 -20 -20 -20 -20 -9 -20 -20 -20 -20 -20 -20 -5